STARLINK-1830, 46727

Orbit data source: Space-Track

STARLINK-1830, 46727 is a payload satellite owned by SpaceX/Seattle (US) in LEO that was launched on Sun, 18 Oct 2020 UTC via an FALCON 9 launch vehicle from the Air Force Eastern Test Range (AFETR). Payload-class satellites include a variety of spacecraft equipped with specific instruments for various scientific and technological missions. These include communications satellites like Starlink; space stations such as the ISS; scientific satellites like the Hubble; Earth observation satellites from companies like Planet Labs, Umbra, and HawkEye 360; GPS; miniature CubeSats for education and research; and military/defense satellites.

Loading next visibility...
Identifier
46727, 2020-073BK
Orbit
LEO
Country
Flag of USUS
Related business
Manufacturer
SpaceX/Seattle
Mission
Partially operational Commercial Communications
Bus & Motor
STARLINK, Unknown motor
Mass
260 kg wet, ~248 kg dry
Launch date (UTC)
2020-10-18 (5 years ago)
Launch vehicle
FALCON 9
Launch site
Air Force Eastern Test Range (AFETR)
Object type
Payload
Rocket body
Debris
Shape & HBR
Box + 1 Pan, 10.1 m
Radar Cross Section
13.562 m², Large (>1 m²)

Expand to show TLE details & history
Last TLE update: 14 hours ago

TLE from 14 hours ago
0 STARLINK-1830
1 46727U 20073BK  25308.76325730  .00085989  00000-0  28793-2 0  9999
2 46727  53.0564  55.3710 0002953 349.8814  10.2125 15.30226179278686
Epoch: 2025-11-04T18:19Z
TLE epoch observation values (Epoch: 2025-11-04T18:19:05.430Z)
Latitude
-0.00007°
Longitude
96.35271°
Altitude
474.034 km
Speed
7.631 km/s
True Right ascension
03h 41m 29s
True Declination
0° 00' 00"
Sunlit
Object was in full shadow at epoch
Visualization orbit readout
Latitude
Unknown
Longitude
Unknown
Altitude
Unknown
Speed
Unknown
Apparent Right ascension
Unknown
Apparent Declination
Unknown
Sunlit
N/A
Visualization observer readout
Local Sidereal Time
04:08:34
Azimuth
Unknown
Elevation
Unknown
Doppler factor
Unknown
Orbital elements
Apogee altitude
477.434 km
Perigee altitude
473.386 km
Semi-major axis
6,853.547 km
Eccentricity
0.0003
Inclination
53.0564°
RAAN
55.371°
Arg. of periapsis
349.8814°
True anomaly
10.2185°
Mean anomaly
10.2125°
Eccentric anomaly
10.2155°
Mean motion
3.82534 °/min
Orbital period
94.11 mins
BSTAR
0.0028793
Loading maneuver chart data...
Computing Atmospheric mass density...

Documentation

Showing up to 5 results
|